| time (UTC) | temp F | wind direction | speed MPH | gust MPH | rain 1hr in | rain 24hr in | rain mn in | humidity % | barometer mb |
| 20260502152222 | 52 | 291 | 0.0 | 0.0 | 0.00 | 0.00 | 0.00 | 88 | 1012.0 |
| 20260502151021 | 52 | 249 | 1.0 | 1.0 | 0.00 | 0.00 | 0.00 | 87 | 1011.9 |
| 20260502123421 | 57 | 323 | 1.0 | 2.0 | 0.00 | 0.00 | 0.00 | 76 | 1011.1 |
| 20260502122221 | 58 | 190 | 1.0 | 2.0 | 0.00 | 0.00 | 0.00 | 75 | 1011.0 |
| 20260502121021 | 58 | 229 | 1.0 | 2.0 | 0.00 | 0.00 | 0.00 | 73 | 1011.1 |
| 20260502115821 | 58 | 272 | 2.0 | 3.0 | 0.00 | 0.00 | 0.00 | 73 | 1010.8 |
| 20260502114620 | 58 | 235 | 2.0 | 5.0 | 0.00 | 0.00 | 0.00 | 73 | 1011.0 |
| 20260502113420 | 59 | 268 | 2.0 | 3.0 | 0.00 | 0.00 | 0.00 | 71 | 1010.5 |
| 20260502112220 | 60 | 226 | 1.0 | 3.0 | 0.00 | 0.00 | 0.00 | 69 | 1010.5 |
| 20260502111021 | 60 | 260 | 1.0 | 2.0 | 0.00 | 0.00 | 0.00 | 69 | 1010.2 |
| 20260502105821 | 61 | 274 | 1.0 | 2.0 | 0.00 | 0.00 | 0.00 | 66 | 1010.1 |
| 20260502104620 | 62 | 260 | 1.0 | 2.0 | 0.00 | 0.00 | 0.00 | 65 | 1009.6 |
| 20260502103424 | 62 | 234 | 2.0 | 2.0 | 0.00 | 0.00 | 0.00 | 62 | 1009.4 |
| 20260502101020 | 63 | 228 | 2.0 | 5.0 | 0.00 | 0.00 | 0.00 | 63 | 1009.3 |
| 20260502091020 | 67 | 240 | 3.0 | 5.0 | 0.00 | 0.20 | 0.00 | 58 | 1008.5 |
| 20260502071020 | 74 | 52 | 12.0 | 16.0 | 0.00 | 0.20 | 0.00 | 34 | 1006.3 |
| 20260502065821 | 75 | 45 | 10.0 | 14.0 | 0.00 | 0.20 | 0.00 | 34 | 1006.2 |
| 20260502064621 | 78 | 53 | 14.0 | 18.0 | 0.00 | 0.20 | 0.00 | 33 | 1005.7 |
| 20260502063420 | 79 | 328 | 1.0 | 3.0 | 0.00 | 0.20 | 0.00 | 27 | 1005.7 |
| 20260502062221 | 78 | 345 | 6.0 | 9.0 | 0.00 | 0.20 | 0.00 | 28 | 1005.5 |
| 20260502061020 | 79 | 357 | 1.0 | 3.0 | 0.00 | 0.20 | 0.00 | 29 | 1005.2 |
| 20260502055820 | 80 | 27 | 3.0 | 13.0 | 0.00 | 0.20 | 0.00 | 28 | 1005.3 |
| 20260502054620 | 79 | 358 | 5.0 | 9.0 | 0.00 | 0.20 | 0.00 | 29 | 1005.2 |
| 20260502053420 | 79 | 319 | 1.0 | 5.0 | 0.00 | 0.20 | 0.00 | 27 | 1005.0 |
| 20260502052220 | 79 | 3 | 7.0 | 12.0 | 0.00 | 0.20 | 0.00 | 28 | 1005.0 |
| 20260502051021 | 78 | 43 | 1.0 | 7.0 | 0.00 | 0.20 | 0.00 | 29 | 1005.1 |
| 20260502044620 | 77 | 78 | 7.0 | 17.0 | 0.00 | 0.20 | 0.00 | 29 | 1004.9 |
| 20260502043420 | 78 | 352 | 9.0 | 15.0 | 0.00 | 0.20 | 0.00 | 28 | 1005.2 |
| 20260502042221 | 77 | 226 | 10.0 | 18.0 | 0.00 | 0.20 | 0.00 | 28 | 1005.0 |
| 20260502041021 | 77 | 22 | 2.0 | 5.0 | 0.00 | 0.20 | 0.00 | 27 | 1005.3 |
| 20260502035821 | 76 | 248 | 7.0 | 13.0 | 0.00 | 0.20 | 0.00 | 27 | 1005.0 |
| 20260502034620 | 76 | 302 | 16.0 | 26.0 | 0.00 | 0.20 | 0.00 | 28 | 1005.5 |
| 20260502033421 | 75 | 296 | 17.0 | 32.0 | 0.00 | 0.20 | 0.00 | 28 | 1005.5 |
| 20260502032221 | 74 | 332 | 12.0 | 20.0 | 0.00 | 0.20 | 0.00 | 30 | 1005.2 |
| 20260502031020 | 75 | 297 | 10.0 | 15.0 | 0.00 | 0.20 | 0.00 | 30 | 1005.2 |
| 20260502025820 | 75 | 300 | 16.0 | 29.0 | 0.00 | 0.20 | 0.00 | 31 | 1005.1 |
| 20260502024621 | 74 | 281 | 17.0 | 23.0 | 0.00 | 0.20 | 0.00 | 30 | 1005.1 |
| 20260502022222 | 74 | 305 | 20.0 | 26.0 | 0.00 | 0.24 | 0.00 | 33 | 1005.0 |
| 20260502021020 | 74 | 277 | 7.0 | 18.0 | 0.00 | 0.24 | 0.00 | 33 | 1004.4 |
| 20260502015819 | 74 | 278 | 10.0 | 25.0 | 0.00 | 0.24 | 0.00 | 34 | 1004.4 |
| 20260502013421 | 73 | 299 | 21.0 | 32.0 | 0.00 | 0.25 | 0.00 | 33 | 1003.8 |
| 20260502012220 | 72 | 320 | 22.0 | 37.0 | 0.00 | 0.28 | 0.00 | 33 | 1004.1 |
| 20260502011021 | 72 | 291 | 22.0 | 29.0 | 0.00 | 0.30 | 0.00 | 33 | 1003.8 |
| 20260502005820 | 72 | 284 | 18.0 | 24.0 | 0.00 | 0.31 | 0.00 | 33 | 1003.8 |
| 20260502004620 | 72 | 292 | 12.0 | 15.0 | 0.00 | 0.32 | 0.00 | 35 | 1003.6 |
| 20260502003422 | 71 | 304 | 12.0 | 14.0 | 0.00 | 0.34 | 0.00 | 35 | 1003.2 |
| 20260502002224 | 71 | 248 | 8.0 | 13.0 | 0.00 | 0.35 | 0.00 | 36 | 1003.0 |
| 20260502001021 | 70 | 320 | 21.0 | 31.0 | 0.00 | 0.36 | 0.00 | 37 | 1003.0 |
| 20260501235822 | 70 | 286 | 14.0 | 18.0 | 0.00 | 0.39 | 0.00 | 38 | 1002.7 |
| 20260501234622 | 69 | 12 | 7.0 | 12.0 | 0.00 | 0.43 | 0.00 | 39 | 1003.0 |
| 20260501233422 | 68 | 320 | 12.0 | 17.0 | 0.00 | 0.46 | 0.00 | 39 | 1002.8 |
| 20260501232221 | 68 | 258 | 10.0 | 16.0 | 0.00 | 0.50 | 0.00 | 40 | 1002.4 |
| 20260501231023 | 68 | 321 | 13.0 | 20.0 | 0.00 | 0.52 | 0.00 | 39 | 1002.5 |
| 20260501225822 | 67 | 251 | 13.0 | 20.0 | 0.00 | 0.58 | 0.00 | 41 | 1002.1 |
| 20260501224621 | 67 | 230 | 5.0 | 9.0 | 0.00 | 0.61 | 0.00 | 43 | 1001.9 |
| 20260501223421 | 67 | 301 | 8.0 | 10.0 | 0.00 | 0.63 | 0.00 | 44 | 1001.8 |
| 20260501221023 | 63 | 158 | 8.0 | 13.0 | 0.00 | 0.71 | 0.00 | 60 | 1000.9 |
| 20260501215822 | 62 | 312 | 6.0 | 12.0 | 0.00 | 0.73 | 0.00 | 57 | 1001.0 |
| 20260501214620 | 63 | 328 | 14.0 | 22.0 | 0.00 | 0.79 | 0.00 | 49 | 1000.8 |
| 20260501213424 | 58 | 304 | 6.0 | 12.0 | 0.00 | 0.86 | 0.00 | 78 | 1001.2 |
| 20260501212222 | 59 | 278 | 3.0 | 7.0 | 0.00 | 0.95 | 0.00 | 74 | 1000.8 |
| 20260501211021 | 59 | 272 | 3.0 | 6.0 | 0.00 | 1.00 | 0.00 | 76 | 1000.5 |
| 20260501205822 | 59 | 235 | 0.0 | 2.0 | 0.00 | 1.06 | 0.00 | 68 | 1000.6 |
| 20260501204622 | 60 | 309 | 8.0 | 10.0 | 0.00 | 1.06 | 0.00 | 61 | 999.8 |
| 20260501203422 | 56 | 331 | 6.0 | 10.0 | 0.00 | 1.07 | 0.00 | 75 | 1000.0 |
| 20260501202222 | 53 | 246 | 2.0 | 5.0 | 0.00 | 1.08 | 0.00 | 84 | 999.7 |
| 20260501201021 | 54 | 250 | 3.0 | 5.0 | 0.00 | 1.08 | 0.00 | 83 | 999.5 |
| 20260501195820 | 57 | 257 | 2.0 | 7.0 | 0.00 | 1.08 | 0.00 | 76 | 999.4 |
| 20260501194621 | 55 | 195 | 5.0 | 8.0 | 0.00 | 1.09 | 0.00 | 80 | 999.1 |
| 20260501193419 | 58 | 177 | 5.0 | 7.0 | 0.00 | 1.12 | 0.00 | 74 | 998.6 |
| 20260501192219 | 59 | 257 | 6.0 | 10.0 | 0.00 | 1.20 | 0.00 | 67 | 998.6 |
| 20260501191021 | 58 | 273 | 2.0 | 5.0 | 0.00 | 1.20 | 0.00 | 72 | 998.4 |
| 20260501185820 | 56 | 342 | 10.0 | 16.0 | 0.00 | 1.20 | 0.00 | 67 | 998.4 |
| 20260501184620 | 57 | 325 | 7.0 | 14.0 | 0.00 | 1.24 | 0.00 | 76 | 997.7 |
| 20260501183421 | 53 | 311 | 8.0 | 16.0 | 0.00 | 1.30 | 0.00 | 87 | 997.1 |
| 20260501182220 | 49 | 339 | 2.0 | 7.0 | 0.00 | 1.36 | 0.00 | 99 | 996.7 |
| 20260501181020 | 48 | 337 | 1.0 | 2.0 | 0.00 | 1.41 | 0.00 | 99 | 996.1 |
| 20260501175821 | 48 | 260 | 5.0 | 5.0 | 0.00 | 1.43 | 0.00 | 99 | 995.6 |
| 20260501173420 | 48 | 189 | 2.0 | 2.0 | 0.00 | 1.48 | 0.00 | 99 | 995.6 |
| 20260501172220 | 48 | 336 | 2.0 | 2.0 | 0.00 | 1.49 | 0.00 | 99 | 995.1 |
| 20260501171020 | 48 | 203 | 2.0 | 3.0 | 0.00 | 1.50 | 0.00 | 99 | 995.2 |
| 20260501165822 | 48 | 349 | 0.0 | 0.0 | 0.00 | 1.52 | 0.00 | 99 | 995.1 |
| 20260501164622 | 49 | 181 | 0.0 | 2.0 | 0.00 | 1.54 | 0.00 | 99 | 994.6 |
| 20260501163421 | 49 | 237 | 2.0 | 3.0 | 0.00 | 1.55 | 0.00 | 99 | 994.8 |
| 20260501162220 | 49 | 159 | 0.0 | 1.0 | 0.00 | 1.56 | 0.00 | 99 | 994.3 |
| 20260501161020 | 49 | 214 | 2.0 | 3.0 | 0.00 | 1.58 | 0.00 | 99 | 994.4 |
| 20260501155822 | 49 | 224 | 1.0 | 1.0 | 0.00 | 1.59 | 0.00 | 99 | 994.2 |